Location: Kalberh�ni
(46.4610°N, 7.2453°E)
Time: 07:13:28
(UTC+00:00)

Cosmos 1331 Rocket - Pass Details

Date: 20 June 2021
Orbit: 749 x 778 km, 74.0° (Epoch: 28 July)

Event Time Altitude Azimuth Distance (km) Brightness Sun altitude
Rises 20:28:43 0° 195° (SSW) 3,214 6.9 -8.7°
Reaches altitude 10° 20:31:04 10° 194° (SSW) 2,297 6.1 -8.9°
Maximum altitude 20:36:17 78° 110° (ESE) 793 4.0 -9.5°
Drops below altitude 10° 20:41:34 10° 24° (NNE) 2,331 6.9 -10.1°
Sets 20:43:58 0° 24° (NNE) 3,266 7.7 -10.4°
